Notices

What's New in latest Release from April 7th, 2021:

- Updated Glossary, including Speed of Maximum Gust, and Total Hourly Precipitation

- Updated national and regional climate services offices contacts and prices information

- Addition of station inventory lists for 1981-2010, 1971-2000, and 1961-1990 Normals.

If you haven't already, please take our survey and provide feedback about our website: https://eccc.sondage-survey.ca/f/LanguageSelection.aspx?s=442ca660-fcf1-47c0-95a9-59707d6fd709

Hourly Data Report for April 15, 2021

CORNER BROOK
NEWFOUNDLAND
Current Station Operator: ECCC - MSC

48°56'00.000" N
57°55'00.000" W
151.80 m
8401298
71973
WKB

Download Data

Hourly Data (April 2021)
Hourly Data Report for April 15, 2021
TIME
LST
Temp Definition
°C
Dew Point Definition
°C
Rel Hum Definition
%
Precip. Amount Definition
mm

Wind Dir Definition
10's deg

Wind Spd Definition
km/h
Visibility Definition
km
Stn Press Definition
kPa
Hmdx Definition


Wind Chill Definition


Weather Definition


00:30 -0.5 -2.5 87 0.0 10 3   99.61   -1 LegendNANA
01:30 -0.9 -2.8 87 0.0 8 7   99.60   -3 LegendNANA
02:30 -0.9 -3.1 85 0.0 9 8   99.60   -4 LegendNANA
03:30 -0.9 -3.4 83 0.0 9 7   99.60   -3 LegendNANA
04:30 -1.2 -3.8 83 0.0 7 7   99.62   -4 LegendNANA
05:30 -1.3 -3.8 83 0.0 7 8   99.63   -4 LegendNANA
06:30 -1.0 -3.8 81 0.0 5 5   99.68   -3 LegendNANA
07:30 -0.3 -3.3 80 0.0 7 10   99.70   -4 LegendNANA
08:30 1.0 -2.1 80 0.0 7 10   99.77     LegendNANA
09:30 2.2 -1.6 76 0.0 6 6   99.79     LegendNANA
10:30 3.2 -1.8 70 0.0 6 11   99.78     LegendNANA
11:30 4.8 -1.4 64 0.0 6 15   99.73     LegendNANA
12:30 7.1 -1.2 56 0.0 6 17   99.70     LegendNANA
13:30 6.9 -1.4 56 0.0 5 21   99.69     LegendNANA
14:30 7.0 -2.4 51 0.0 8 24   99.71     LegendNANA
15:30 7.7 -2.0 50 0.0 7 19   99.74     LegendNANA
16:30 7.6 -1.6 52 0.0 7 21   99.71     LegendNANA
17:30 5.3 -0.8 65 0.0 6 18   99.81     LegendNANA
18:30 2.6 -0.3 81 0.0 7 13   99.88     LegendNANA
19:30 1.5 -0.4 87 0.0 7 9   99.96     LegendNANA
20:30 0.9 -0.5 90 0.0 6 13   100.02     LegendNANA
21:30 0.6 -0.8 90 0.0 6 14   100.03     LegendNANA
22:30 0.2 -1.2 91 0.0 6 14   100.03     LegendNANA
23:30 0.1 -1.2 91 0.0 6 13   100.00     LegendNANA

Notes on Data Quality.

Legend

  • E = Estimated
  • M = Missing
  • NA = Not Available*
  • [empty] = Indicates an unobserved value
Date modified: